This is the latest recevied weather packets stored in our database for station/object KC8YYF. If no packets are shown the sender has not sent any weather packets the latest 10 day(s).
| Time | Temp. | Humidity | Pressure | Rain* | Wind** | Luminosity | Snow |
|---|---|---|---|---|---|---|---|
| 1777621910 | 3.89° C | 88% | 1014.3 hPa | 0 mm | - | 0 W/m² | - |
| 1777621604 | 3.33° C | 90% | 1014.3 hPa | 0 mm | - | 0 W/m² | - |
| 1777621302 | 3.33° C | 92% | 1014.4 hPa | 0 mm | - | 0 W/m² | - |
| 1777620998 | 3.89° C | 92% | 1014.5 hPa | 0 mm | - | 0 W/m² | - |
| 1777620693 | 3.89° C | 92% | 1014.4 hPa | 0 mm | - | 0 W/m² | - |
| 1777620390 | 3.89° C | 91% | 1014.6 hPa | 0 mm | - | 0 W/m² | - |
| 1777620087 | 3.89° C | 90% | 1014.4 hPa | 0 mm | - | 0 W/m² | - |
| 1777619783 | 3.89° C | 88% | 1014.3 hPa | 0 mm | - | 0 W/m² | - |
| 1777619478 | 4.44° C | 91% | 1014.3 hPa | 0 mm | - | 0 W/m² | - |
| 1777619174 | 4.44° C | 91% | 1014.4 hPa | 0 mm | - | 0 W/m² | - |
| 1777618869 | 4.44° C | 90% | 1014.4 hPa | 0 mm | - | 0 W/m² | - |
| 1777618569 | 4.44° C | 89% | 1014.9 hPa | 0 mm | - | 0 W/m² | - |
| 1777618265 | 5° C | 87% | 1014.6 hPa | 0 mm | - | 0 W/m² | - |
| 1777617962 | 5° C | 88% | 1014.5 hPa | 0 mm | - | 0 W/m² | - |
| 1777617657 | 4.44° C | 85% | 1014.9 hPa | 0 mm | - | 0 W/m² | - |
| 1777617348 | 4.44° C | 86% | 1015 hPa | 0 mm | - | 0 W/m² | - |
| 1777617046 | 4.44° C | 87% | 1014.9 hPa | 0 mm | - | 0 W/m² | - |
| 1777616745 | 3.89° C | 88% | 1015.2 hPa | 0 mm | - | 0 W/m² | - |
| 1777616440 | 4.44° C | 90% | 1015.1 hPa | 0 mm | - | 0 W/m² | - |
| 1777616137 | 4.44° C | 89% | 1015.1 hPa | 0 mm | - | 0 W/m² | - |
| 1777615834 | 4.44° C | 87% | 1015.2 hPa | 0 mm | - | 0 W/m² | - |
| 1777615531 | 4.44° C | 86% | 1015 hPa | 0 mm | - | 0 W/m² | - |
| 1777615227 | 4.44° C | 86% | 1015.1 hPa | 0 mm | - | 0 W/m² | - |
| 1777614921 | 4.44° C | 86% | 1015.1 hPa | 0 mm | - | 0 W/m² | - |
| 1777614618 | 3.89° C | 89% | 1015.3 hPa | 0 mm | - | 0 W/m² | - |
* Rain latest hour (hover to see other rain measurements)
** Current wind speed in m/s (hover to see current wind gust speed)